Showing default

LYRA-1, 62664

Orbit data source: Space-Track

LYRA-1, 62664 is a payload satellite owned by Echostar AU (AU) in SSO that was launched on Tue, 14 Jan 2025 UTC via an FALCON 9 launch vehicle from the Air Force Western Test Range (AFWTR). Payload-class satellites include a variety of spacecraft equipped with specific instruments for various scientific and technological missions. These include communications satellites like Starlink; space stations such as the ISS; scientific satellites like the Hubble; Earth observation satellites from companies like Planet Labs, Umbra, and HawkEye 360; GPS; miniature CubeSats for education and research; and military/defense satellites.

Loading next visibility...
Identifier
62664, 2025-009BH
Orbit
SSO
Country
Flag of AUAU / AUS
Related business
Manufacturer
Astro Digital
Mission
Operational Commercial Communications
Bus & Motor
CORVUS XL, Unknown motor
Mass
74 kg wet, 74 kg dry
Launch date (UTC)
2025-01-14 (2 years ago)
Launch vehicle
FALCON 9
Launch site
Air Force Western Test Range (AFWTR)
Object type
Payload
Rocket body
Debris
Shape & HBR
Box, 1.0 m
Radar Cross Section
0.425 m², Medium (>0.1 m² and < 1m²)

Expand to show TLE details & history
Last TLE update: 19 hours ago

TLE from 19 hours ago
0 LYRA-1
1 62664U 25009BH  26255.65101552  .00006351  00000-0  29621-3 0  9993
2 62664  97.3913 328.4521 0007298 241.9537 118.0961 15.20186833 91700
Epoch: 2026-09-12T15:37Z
TLE epoch observation values (Epoch: 2026-09-12T15:37:27.740Z)
Latitude
-0.00001°
Longitude
102.42956°
Altitude
510.737 km
Speed
7.607 km/s
True Right ascension
21h 53m 48s
True Declination
0° 00' 00"
Sunlit
Object was in full shadow at epoch
Visualization orbit readout
Latitude
Unknown
Longitude
Unknown
Altitude
Unknown
Speed
Unknown
Apparent Right ascension
Unknown
Apparent Declination
Unknown
Sunlit
N/A
Visualization observer readout
Local Sidereal Time
02:48:43
Azimuth
Unknown
Elevation
Unknown
Doppler factor
Unknown
Orbital elements
Apogee altitude
507.263 km
Perigee altitude
497.22 km
Semi-major axis
6,880.379 km
Eccentricity
0.00073
Inclination
97.3913°
RAAN
328.4521°
Arg. of periapsis
241.9537°
True anomaly
118.16984°
Mean anomaly
118.0961°
Eccentric anomaly
118.13297°
Mean motion
3.80299 °/min
Orbital period
94.66 mins
BSTAR
0.00029621
Loading maneuver chart data...
Computing Atmospheric mass density...
Loading historical data...
Loading historical data...
Loading historical data...
Loading historical data...
Loading historical data...
Loading historical data...
Loading historical data...

Documentation

Showing up to 5 results
|